[[{"header":{"parameterUnit":"m.s-1","parameterCategory":1,"la1":30.2991,"la2":30.254,"lo1":-89.0895,"lo2":-89.0444,"dy":0.0017,"dx":0.0017,"nx":28,"ny":28,"refTime":"2024-08-31T21:00:00:Z","depth":0,"parameterNumber":2,"parameterNumberName":"U-component_of_WINDS"},"data":[0,0,0,0,0,0,0,0,0,0,0,0,0,0,0,0,0,0,0,0,0,0,0,0,0,0,0,0,0,0,0,0,0,0,0,0,0,0,0,0,0,0,0,0,0,0,0,0,0,0,0,0,0,0,0,0,0,0,-3.2906,-3.2906,0,-3.2925,-3.2926,-3.2926,-3.2834,-3.2831,-3.2829,-3.2826,-3.2846,-3.2848,-3.2851,0,0,0,0,0,0,0,0,0,0,0,0,0,-3.2789,-3.2791,-3.2906,-3.2906,-3.2907,-3.2925,-3.2926,-3.2926,-3.2834,-3.2831,-3.2828,-3.2825,-3.2845,-3.2848,-3.2852,0,0,0,0,0,0,0,0,0,0,0,0,0,-3.2827,-3.2792,-3.2906,-3.2863,-3.286,-3.2925,-3.2926,-3.2926,-3.2835,-3.2831,-3.2827,-3.2823,-3.2843,-3.2848,-3.2852,-3.296,0,0,-3.2866,-3.2868,0,0,0,0,0,0,0,0,-3.2825,-3.2831,-3.2869,-3.2866,-3.2862,-3.2873,-3.2891,-3.2937,-3.2836,-3.2844,-3.2826,-3.2821,-3.2858,-3.2861,-3.2873,-3.2961,-3.2962,-3.2866,-3.2869,-3.2871,-3.2872,0,0,0,0,0,0,0,-3.2822,-3.283,-3.2914,-3.287,-3.2866,-3.2843,-3.2844,-3.29,-3.2873,-3.2843,-3.2837,-3.284,-3.2855,-3.2869,-3.2873,-3.2962,-3.2866,-3.287,-3.2873,-3.2875,-3.3137,-3.3141,0,0,0,0,0,0,-3.2826,-3.2828,-3.2913,-3.2914,-3.2833,-3.2848,-3.2849,-3.2874,-3.2872,-3.2868,-3.2844,-3.2836,-3.2864,-3.2868,-3.2874,-3.2998,-3.2871,-3.2875,-3.2878,-3.3133,-3.3138,-3.3142,0,0,0,0,0,0,-3.2823,-3.2834,-3.2912,-3.287,-3.2878,-3.2854,-3.2883,-3.2876,-3.289,-3.2873,-3.2868,-3.2863,-3.2861,-3.2867,-3.2939,-3.2997,-3.2877,-3.2881,-3.3128,-3.3134,-3.314,-3.3249,0,0,0,0,0,0,-3.282,-3.2834,-3.2875,-3.2871,-3.288,-3.2978,-3.2886,-3.2879,-3.2898,-3.2888,-3.2889,-3.2886,-3.2858,-3.2933,-3.2943,-3.3001,-3.2885,-3.3122,-3.3131,-3.3138,-3.324,-3.3258,-3.3274,0,0,0,0,0,-3.2817,-3.2905,-3.2877,-3.2888,-3.2931,-3.2981,-3.2987,-3.2953,-3.2903,-3.2944,-3.2933,-3.2886,-3.299,-3.2941,-3.2952,-3.3012,-3.3118,-3.3128,-3.3138,-3.3232,-3.3254,-3.3273,0,0,0,0,0,0,-3.2916,-3.2904,-3.2873,-3.2963,-3.2974,-3.2966,-3.3016,-3.2978,-3.3003,-3.2993,-3.295,-3.2951,-3.303,-3.3028,-3.2974,-3.3116,-3.3045,-3.3058,-3.3113,-3.3134,-3.3151,-3.3149,-3.2889,0,0,0,0,0,-3.2949,-3.2991,-3.2977,-3.3058,-3.3065,-3.304,-3.3061,-3.3034,-3.3043,-3.3047,-3.3041,-3.3052,-3.3087,-3.3111,-3.3142,-3.324,-3.3238,-3.3287,-3.3304,-3.3318,-3.3328,-3.3378,-3.3399,-3.3174,-3.3174,-3.3174,0,0,-3.3016,-3.3014,-3.3043,-3.3078,-3.3083,-3.3127,-3.3044,-3.3095,-3.3126,-3.3055,-3.3121,-3.3118,-3.3127,-3.3212,-3.3249,-3.3213,-3.339,-3.333,-3.3341,-3.3344,-3.339,-3.3411,-3.343,-3.3181,-3.3179,-3.3178,0,0,-3.316,-3.3164,-3.3231,-3.3238,-3.3247,-3.3229,-3.3246,-3.3243,-3.3238,-3.3304,-3.3251,-3.3288,-3.335,-3.3358,-3.337,-3.3518,-3.3475,-3.3529,-3.3617,-3.3666,-3.3683,-3.3699,-3.3749,-3.3768,-3.354,-3.3541,-3.3541,0,-3.3242,-3.3306,-3.327,-3.3323,-3.3339,-3.3277,-3.3343,-3.3352,-3.3371,-3.3383,-3.3343,-3.3418,-3.342,-3.3505,-3.3541,-3.3553,-3.3569,-3.3528,-3.3684,-3.3699,-3.3713,-3.3761,-3.378,-3.3547,-3.3546,-3.3545,-3.3545,0,-3.3406,-3.3452,-3.3504,-3.3523,-3.3546,-3.3606,-3.3577,-3.3604,-3.3576,-3.3563,-3.363,-3.3631,-3.366,-3.3678,-3.3651,-3.3759,-3.3736,-3.3691,-3.3619,-3.3741,-3.3785,-3.3803,-3.3556,-3.3554,-3.3552,-3.355,0,0,-3.3613,-3.3611,-3.3631,-3.3638,-3.3643,-3.3677,-3.3734,-3.3763,-3.3786,-3.3801,-3.3847,-3.39,-3.3858,-3.3872,-3.3845,-3.3888,-3.4003,-3.3837,-3.3837,-3.3866,-3.4119,-3.4152,-3.4173,-3.3975,-3.3978,-3.3981,-3.4118,0,-3.3752,-3.3849,-3.3817,-3.3915,-3.3955,-3.3896,-3.3945,-3.3954,-3.3943,-3.3975,-3.3963,-3.4001,-3.3944,-3.3951,-3.3992,-3.398,-3.4052,-3.397,-3.4015,-3.4017,-3.4013,-3.4197,-3.4231,-3.436,-3.4135,-3.4138,-3.414,0,-3.3928,-3.395,-3.4051,-3.4048,-3.4064,-3.4109,-3.4132,-3.4164,-3.4172,-3.4161,-3.4177,-3.4141,-3.4195,-3.4125,-3.4199,-3.4144,-3.416,-3.4158,-3.4162,-3.4163,-3.4085,-3.4201,-3.4401,-3.4419,-3.4167,-3.4165,-3.4163,0,-3.4066,-3.4121,-3.4188,-3.4196,-3.4195,-3.4228,-3.4229,-3.4233,-3.4252,-3.4272,-3.4284,-3.4311,-3.4325,-3.4346,-3.4318,-3.427,-3.4396,-3.4323,-3.4387,-3.4387,-3.4414,-3.4412,-3.4617,-3.4429,-3.4429,-3.4428,-3.4428,0,-3.4224,-3.4288,-3.4249,-3.4291,-3.436,-3.4323,-3.4393,-3.4387,-3.4392,-3.443,-3.4382,-3.4419,-3.438,-3.4414,-3.4393,-3.4456,-3.4463,-3.4455,-3.4448,-3.4458,-3.4459,-3.4467,-3.4456,-3.4433,-3.4432,-3.4431,-3.443,0,-3.4388,-3.4366,-3.4435,-3.4428,-3.4428,-3.4479,-3.4473,-3.4511,-3.4497,-3.4546,-3.4555,-3.4533,-3.457,-3.4545,-3.4582,-3.4567,-3.465,-3.4631,-3.4647,-3.4641,-3.4705,-3.4698,-3.492,-3.4947,-3.4744,-3.4746,-3.4747,0,-3.449,-3.4537,-3.4536,-3.4558,-3.4562,-3.4599,-3.4617,-3.4583,-3.4605,-3.4617,-3.4653,-3.4686,-3.4709,-3.4771,-3.4758,-3.4786,-3.4766,-3.4842,-3.477,-3.4778,-3.4765,-3.4761,-3.4765,-3.4856,-3.4859,-3.4861,-3.4862,0,-3.4671,-3.4657,-3.4686,-3.4711,-3.4735,-3.4753,-3.4768,-3.4789,-3.4754,-3.4781,-3.4817,-3.4836,-3.4873,-3.4906,-3.4929,-3.4929,-3.489,-3.4885,-3.4901,-3.491,-3.4916,-3.4912,-3.4684,-3.488,-3.4878,-3.4877,-3.4876,-3.4875,-3.4805,-3.4844,-3.4849,-3.4882,-3.4889,-3.4904,-3.4938,-3.4928,-3.4958,-3.4986,-3.4964,-3.5008,-3.5013,-3.504,-3.5045,-3.5078,-3.5047,-3.5071,-3.5076,-3.5082,-3.509,-3.4913,-3.5083,-3.5082,-3.5082,-3.5081,-3.5081,0,-3.4982,-3.4982,-3.5014,-3.5035,-3.5061,-3.5022,-3.5036,-3.506,-3.5099,-3.5108,-3.5132,-3.5174,-3.5205,-3.5195,-3.5223,-3.5251,-3.5234,-3.5259,-3.5256,-3.5256,-3.5117,-3.51,-3.5273,-3.5273,-3.5273,-3.5273,-3.5273,-3.5273,-3.5077,-3.514,-3.5127,-3.5193,-3.5192,-3.5234,-3.5245,-3.5258,-3.5264,-3.5313,-3.5338,-3.5332,-3.5332,-3.536,-3.5386,-3.5382,-3.5394,-3.5426,-3.5415,-3.5285,-3.5266,-3.5248,-3.5231,-3.5429,-3.5429,-3.5551,-3.5552,-3.5553]},{"header":{"parameterUnit":"m.s-1","parameterCategory":1,"la1":30.2991,"la2":30.254,"lo1":-89.0895,"lo2":-89.0444,"dy":0.0017,"dx":0.0017,"nx":28,"ny":28,"refTime":"2024-08-31T21:00:00:Z","depth":0,"parameterNumber":3,"parameterNumberName":"V-component_of_WINDS"},"data":[0,0,0,0,0,0,0,0,0,0,0,0,0,0,0,0,0,0,0,0,0,0,0,0,0,0,0,0,0,0,0,0,0,0,0,0,0,0,0,0,0,0,0,0,0,0,0,0,0,0,0,0,0,0,0,0,0,0,0.5465,0.5464,0,0.5375,0.5374,0.5373,0.5281,0.528,0.5279,0.5278,0.5186,0.5184,0.5183,0,0,0,0,0,0,0,0,0,0,0,0,0,0.5558,0.5557,0.5465,0.5464,0.5463,0.5376,0.5374,0.5373,0.5282,0.528,0.5279,0.5277,0.5186,0.5184,0.5183,0,0,0,0,0,0,0,0,0,0,0,0,0,0.5498,0.5557,0.5466,0.5407,0.5401,0.5376,0.5374,0.5373,0.5282,0.528,0.5278,0.5277,0.5187,0.5185,0.5183,0.5208,0,0,0.5177,0.5176,0,0,0,0,0,0,0,0,0.5502,0.5495,0.5417,0.5411,0.5404,0.5338,0.5373,0.5318,0.5282,0.5327,0.5278,0.5276,0.5238,0.5231,0.5219,0.5204,0.52,0.5177,0.5175,0.5175,0.5174,0,0,0,0,0,0,0,0.5506,0.5498,0.543,0.5416,0.5408,0.5385,0.5375,0.5362,0.5294,0.5323,0.5316,0.5307,0.5234,0.5221,0.5216,0.5198,0.5177,0.5175,0.5174,0.5173,0.5201,0.5202,0,0,0,0,0,0,0.5519,0.5502,0.5433,0.5427,0.5449,0.5385,0.5373,0.5361,0.5294,0.5282,0.5309,0.5303,0.5225,0.5218,0.5212,0.5238,0.5175,0.5173,0.5172,0.5199,0.5201,0.5203,0,0,0,0,0,0,0.5521,0.5514,0.5436,0.5463,0.5451,0.5386,0.5372,0.536,0.5347,0.5283,0.527,0.5308,0.5223,0.5215,0.521,0.5233,0.5172,0.517,0.5196,0.5199,0.5202,0.5289,0,0,0,0,0,0,0.5525,0.5515,0.5524,0.5464,0.545,0.5436,0.5374,0.536,0.5344,0.5336,0.5279,0.5267,0.5221,0.5213,0.5208,0.523,0.5169,0.5194,0.5198,0.5201,0.5284,0.5295,0.5304,0,0,0,0,0,0.5528,0.5552,0.5525,0.5517,0.546,0.5437,0.5429,0.5376,0.5346,0.5354,0.5314,0.5269,0.5232,0.5214,0.5207,0.5228,0.5192,0.5197,0.5201,0.528,0.5293,0.5304,0,0,0,0,0,0,0.5617,0.5543,0.5512,0.5517,0.5484,0.5422,0.5431,0.5391,0.5366,0.5359,0.5293,0.5281,0.5284,0.5255,0.5237,0.5249,0.5206,0.5209,0.5268,0.528,0.529,0.5297,0.5167,0,0,0,0,0,0.5637,0.5625,0.5561,0.5572,0.5557,0.5497,0.5485,0.5446,0.5409,0.5395,0.5353,0.5319,0.53,0.5288,0.5267,0.528,0.5266,0.5291,0.5301,0.531,0.5313,0.5318,0.5329,0.5217,0.5217,0.5217,0,0,0.5678,0.5636,0.5633,0.5588,0.5558,0.5547,0.5486,0.5476,0.5467,0.5393,0.5386,0.5355,0.5312,0.5317,0.5317,0.5293,0.5341,0.5315,0.5322,0.5321,0.5324,0.5334,0.5344,0.522,0.5219,0.5219,0,0,0.5748,0.5715,0.572,0.5692,0.5647,0.5607,0.5609,0.5552,0.5529,0.5521,0.5465,0.5454,0.5421,0.5394,0.5375,0.5436,0.5394,0.5431,0.5483,0.5489,0.5497,0.5505,0.5527,0.5535,0.5434,0.5434,0.5435,0,0.5805,0.5786,0.5728,0.5723,0.5705,0.5638,0.5643,0.5618,0.5569,0.5558,0.5532,0.5491,0.5458,0.5455,0.547,0.5457,0.5457,0.5437,0.5501,0.5508,0.5514,0.5534,0.5542,0.5439,0.5439,0.5438,0.5438,0,0.5858,0.5846,0.5856,0.581,0.5794,0.5794,0.5736,0.5727,0.569,0.5653,0.5646,0.5604,0.5573,0.5569,0.5533,0.5562,0.5548,0.5513,0.5468,0.553,0.5548,0.5555,0.5446,0.5444,0.5443,0.5442,0,0,0.5981,0.5904,0.5909,0.5887,0.5833,0.5823,0.582,0.579,0.5783,0.5751,0.5747,0.5722,0.5689,0.5668,0.5629,0.5634,0.5685,0.5597,0.5595,0.5615,0.5714,0.5742,0.5751,0.5657,0.5659,0.566,0.5718,0,0.6041,0.6032,0.598,0.5986,0.5974,0.5911,0.5909,0.5876,0.5841,0.5826,0.5788,0.5772,0.5729,0.5716,0.5719,0.5678,0.5704,0.5673,0.5653,0.5653,0.5666,0.576,0.5789,0.5846,0.5724,0.5725,0.5726,0,0.611,0.6084,0.6089,0.6035,0.6028,0.6027,0.5996,0.5982,0.5944,0.5918,0.5896,0.5852,0.5845,0.5803,0.5794,0.5774,0.5763,0.5742,0.5743,0.5739,0.5694,0.5759,0.5863,0.5872,0.5737,0.5736,0.5735,0,0.62,0.6165,0.6163,0.6147,0.6085,0.6086,0.606,0.6019,0.6005,0.5977,0.5967,0.594,0.5925,0.5905,0.5854,0.5828,0.5851,0.5804,0.583,0.5831,0.5837,0.5837,0.5941,0.583,0.583,0.583,0.583,0,0.6273,0.6278,0.6202,0.6202,0.6206,0.6147,0.6153,0.6121,0.6086,0.6078,0.6022,0.6015,0.5949,0.5935,0.5896,0.5894,0.5888,0.5867,0.5857,0.5872,0.5875,0.5864,0.5859,0.5832,0.5832,0.5831,0.5831,0,0.6373,0.6322,0.6317,0.6259,0.6244,0.625,0.62,0.6197,0.616,0.6151,0.6145,0.6086,0.6067,0.6015,0.5982,0.5956,0.5966,0.5946,0.5979,0.5972,0.6001,0.5999,0.6101,0.6111,0.5994,0.5996,0.5997,0,0.6423,0.6426,0.6368,0.6359,0.6335,0.6321,0.6306,0.6248,0.6235,0.6192,0.6194,0.6171,0.6149,0.6122,0.6076,0.6051,0.603,0.6068,0.6026,0.6042,0.6031,0.6032,0.6032,0.6077,0.6079,0.608,0.6081,0,0.6517,0.6492,0.6472,0.6445,0.6429,0.6404,0.6376,0.6372,0.6307,0.6295,0.6275,0.6258,0.6225,0.6203,0.6171,0.6144,0.6102,0.6094,0.6099,0.6115,0.6134,0.6125,0.6004,0.6092,0.6091,0.609,0.609,0.6089,0.6593,0.6593,0.6553,0.6533,0.6506,0.6482,0.6476,0.6439,0.6421,0.639,0.6357,0.6341,0.6302,0.6255,0.6232,0.6218,0.6196,0.6203,0.6204,0.6207,0.6214,0.6137,0.6212,0.6212,0.6212,0.6211,0.6211,0,0.6685,0.6656,0.6639,0.6602,0.6587,0.6548,0.6516,0.6506,0.6492,0.646,0.644,0.6418,0.6396,0.6349,0.6323,0.6321,0.6302,0.6317,0.6316,0.6311,0.6236,0.6234,0.6333,0.6333,0.6333,0.6333,0.6333,0.6333,0.6731,0.6728,0.6699,0.6683,0.6654,0.6638,0.6623,0.66,0.6574,0.6552,0.6533,0.6503,0.6465,0.6436,0.6415,0.6401,0.6395,0.6416,0.6397,0.6328,0.6316,0.6305,0.6303,0.6415,0.6415,0.6473,0.6474,0.6474]}]]